Terminal Aerodrome Forecast
Issued by NWS

Current Version | Previous Version | Graphics & Text | Print | Product List | Glossary On
Versions: 1 2 3 4 5 6 7 8 9 10 11 12 13 14 15 16 17 18 19 20 21 22 23 24 25 26 27 28 29 30 31 32 33 34
000
FTUS41 KRNK 170730 AAA
TAFLWB
TAF AMD
KLWB 170730Z 1708/1806 30007KT P6SM OVC010
     FM171500 28010KT P6SM OVC024
     FM172200 29005KT P6SM SCT025=

USA.gov is the U.S. government's official web portal to all federal, state and local government web resources and services.